Satellite-Ground Cal/Val Site Overpasses Predictions

Prediction of Satellite NPP Overpassing Cal/Val Site: Antarctic Dome C

Ground Cal/Val Site Location: Latitude: -75.10, Longitude: 123.35; Satellite-Ground Site NADIR distance within 100 km.

Table of predicted overpasses for the next 14.0 days since TLE Epoch: 3/29/2025
Interval Starting Time Ending Time Minimum Distance Time Minimum Distance (km)
1 03/29/2025 15:01:30 03/29/2025 15:01:54 03/29/2025 15:01:42 58.00
2 03/30/2025 14:42:43 03/30/2025 14:43:08 03/30/2025 14:42:55 50.84
3 03/31/2025 07:44:24 03/31/2025 07:44:46 03/31/2025 07:44:35 66.16
4 04/01/2025 07:25:35 04/01/2025 07:26:02 04/01/2025 07:25:49 41.77
5 04/03/2025 15:08:07 04/03/2025 15:08:14 04/03/2025 15:08:11 96.58
6 04/04/2025 14:49:08 04/04/2025 14:49:37 04/04/2025 14:49:22 14.63
7 04/06/2025 07:32:01 04/06/2025 07:32:30 04/06/2025 07:32:16 4.94
8 04/09/2025 14:55:35 04/09/2025 14:56:04 04/09/2025 14:55:50 22.78
9 04/10/2025 14:36:54 04/10/2025 14:37:10 04/10/2025 14:37:02 84.04
